FW4606 Weather Reports


time (UTC)temp
C
wind
direction
speed
KPH
gust
KPH
rain 1hr
cm
rain 24hr
cm
rain mn
cm
humidity
%
barometer
mb
20260903193306 31 96 4.8 16.1 0.00 0.00 0.00 57 1009.3
20260903192803 31 162 4.8 12.9 0.00 0.00 0.00 57 1009.2
20260903192302 31 162 3.2 11.3 0.00 0.00 0.00 59 1009.2
20260903191803 31 312 4.8 16.1 0.00 0.00 0.00 59 1009.1
20260903191302 31 169 4.8 16.1 0.00 0.00 0.00 56 1009.1
20260903190803 32 119 3.2 11.3 0.00 0.00 0.00 57 1009.3
20260903190307 31 204 4.8 20.9 0.00 0.00 0.00 58 1009.2
20260903185805 31 257 4.8 20.9 0.00 0.00 0.00 58 1009.3
20260903185306 31 95 3.2 12.9 0.00 0.00 0.00 59 1009.3
20260903184806 31 336 4.8 11.3 0.00 0.00 0.00 59 1009.2
20260903184302 31 155 4.8 11.3 0.00 0.00 0.00 59 1009.5
20260903183803 30 145 3.2 11.3 0.00 0.00 0.00 60 1009.5
20260903183302 30 257 3.2 8.0 0.00 0.00 0.00 61 1009.6
20260903182801 30 156 1.6 8.0 0.00 0.00 0.00 63 1009.6
20260903182306 29 210 1.6 6.4 0.00 0.00 0.00 63 1009.6
20260903181807 30 257 3.2 9.7 0.00 0.00 0.00 58 1010.0
20260903181803 30 270 1.6 8.0 0.00 0.00 0.00 61 1009.8
20260903181053 30 159 3.2 9.7 0.00 0.00 0.00 57 1009.3
20260903180302 30 88 3.2 12.9 0.00 0.00 0.00 56 1009.6
20260903175803 31 274 4.8 17.7 0.00 0.00 0.00 55 1009.7
20260903175305 31 203 3.2 17.7 0.00 0.00 0.00 54 1009.6
20260903174802 32 156 3.2 11.3 0.00 0.00 0.00 54 1009.8
20260903174302 31 132 1.6 6.4 0.00 0.00 0.00 56 1009.8
20260903173801 31 240 1.6 6.4 0.00 0.00 0.00 57 1009.8
20260903173259 31 297 3.2 6.4 0.00 0.00 0.00 58 1009.9
20260903172800 31 325 3.2 8.0 0.00 0.00 0.00 57 1009.9
20260903172301 31 152 3.2 9.7 0.00 0.00 0.00 56 1010.0
20260903171759 31 180 3.2 9.7 0.00 0.00 0.00 56 1010.1
20260903171258 31 277 1.6 9.7 0.00 0.00 0.00 57 1010.1
20260903170752 31 105 1.6 9.7 0.00 0.00 0.00 56 1010.2
20260903170246 31 275 1.6 6.4 0.00 0.00 0.00 59 1010.2
20260903165745 31 257 1.6 6.4 0.00 0.00 0.00 60 1010.2
20260903165244 31 96 0.0 6.4 0.00 0.00 0.00 61 1010.3
20260903164746 30 105 1.6 4.8 0.00 0.00 0.00 62 1010.4
20260903164243 30 195 1.6 4.8 0.00 0.00 0.00 62 1010.4
20260903164014 30 203 1.6 4.8 0.00 0.00 0.00 65 1010.4
20260903163244 29 176 1.6 4.8 0.00 0.00 0.00 65 1010.4
20260903162743 28 189 0.0 3.2 0.00 0.00 0.00 65 1010.3
20260903162514 28 0 0.0 3.2 0.00 0.00 0.00 65 1010.4
20260903162011 28 167 0.0 4.8 0.00 0.00 0.00 65 1010.5
20260903161241 28 249 0.0 4.8 0.00 0.00 0.00 66 1010.5
20260903160738 28 93 0.0 4.8 0.00 0.00 0.00 65 1010.5
20260903160237 28 252 0.0 1.6 0.00 0.00 0.00 65 1010.5
20260903155737 28 305 0.0 3.2 0.00 0.00 0.00 66 1010.5
20260903155237 28 145 0.0 4.8 0.00 0.00 0.00 65 1010.4
20260903154738 28 204 1.6 6.4 0.00 0.00 0.00 64 1010.3
20260903154508 28 83 1.6 11.3 0.00 0.00 0.00 65 1010.3
20260903153736 28 325 1.6 11.3 0.00 0.00 0.00 67 1010.3
20260903153234 28 231 1.6 6.4 0.00 0.00 0.00 68 1010.5
20260903152734 28 115 0.0 6.4 0.00 0.00 0.00 69 1010.5
20260903152233 28 173 0.0 3.2 0.00 0.00 0.00 69 1010.4
20260903152006 27 115 1.6 11.3 0.00 0.00 0.00 70 1010.3
20260903151231 27 266 1.6 11.3 0.00 0.00 0.00 72 1010.4
20260903150731 27 232 0.0 4.8 0.00 0.00 0.00 73 1010.4
20260903150228 26 106 0.0 6.4 0.00 0.00 0.00 76 1010.3
20260903145729 26 125 0.0 6.4 0.00 0.00 0.00 78 1010.4
20260903145225 25 122 0.0 1.6 0.00 0.00 0.00 82 1010.4
20260903144726 25 87 0.0 1.6 0.00 0.00 0.00 84 1010.4
20260903144226 25 339 0.0 1.6 0.00 0.00 0.00 85 1010.4
20260903143725 24 243 0.0 1.6 0.00 0.00 0.00 86 1010.5
20260903143225 24 125 0.0 3.2 0.00 0.00 0.00 87 1010.5
20260903142724 23 217 0.0 3.2 0.00 0.00 0.00 87 1010.5
20260903142217 23 104 0.0 1.6 0.00 0.00 0.00 87 1010.5
20260903141711 23 105 0.0 0.0 0.00 0.00 0.00 88 1010.5
20260903141436 23 114 0.0 3.2 0.00 0.00 0.00 89 1010.6
20260903140931 23 114 0.0 3.2 0.00 0.00 0.00 89 1010.6
20260903140200 23 318 0.0 1.6 0.00 0.00 0.00 89 1010.7
20260903135701 22 56 0.0 1.6 0.00 0.00 0.00 89 1010.8
20260903135200 22 44 0.0 3.2 0.00 0.00 0.00 89 1010.8
20260903134701 22 97 0.0 4.8 0.00 0.00 0.00 89 1010.9
20260903134200 22 144 0.0 4.8 0.00 0.00 0.00 89 1010.8
20260903133659 22 113 0.0 1.6 0.00 0.00 0.00 90 1010.8
20260903133158 22 343 0.0 1.6 0.00 0.00 0.00 90 1010.9
20260903132928 22 100 0.0 1.6 0.00 0.00 0.00 90 1010.9
20260903132157 22 77 0.0 1.6 0.00 0.00 0.00 90 1010.8
20260903131655 21 75 0.0 3.2 0.00 0.00 0.00 90 1010.8
20260903131155 21 20 0.0 3.2 0.00 0.00 0.00 90 1010.7
20260903130655 21 43 0.0 3.2 0.00 0.00 0.00 90 1010.8
20260903130155 21 1 0.0 1.6 0.00 0.00 0.00 91 1010.7
20260903125656 21 49 0.0 4.8 0.00 0.00 0.00 91 1010.7
20260903125200 21 11 0.0 1.6 0.00 0.00 0.00 91 1010.9
20260903125155 21 80 0.0 4.8 0.00 0.00 0.00 91 1010.8
20260903124156 21 20 0.0 1.6 0.00 0.00 0.00 91 1010.8
20260903123650 21 129 0.0 1.6 0.00 0.00 0.00 91 1010.8
20260903123143 21 130 0.0 1.6 0.00 0.00 0.00 91 1010.9
20260903122638 21 145 0.0 0.0 0.00 0.00 0.00 91 1010.7
20260903122132 21 145 0.0 1.6 0.00 0.00 0.00 91 1010.8
20260903121625 21 145 0.0 1.6 0.00 0.00 0.00 91 1010.8
20260903121120 21 103 0.0 1.6 0.00 0.00 0.00 91 1010.7
20260903120613 21 115 0.0 1.6 0.00 0.00 0.00 91 1010.7
20260903120108 21 114 0.0 1.6 0.00 0.00 0.00 91 1010.7
20260903115834 21 107 0.0 1.6 0.00 0.00 0.00 91 1010.6
20260903115055 20 15 0.0 1.6 0.00 0.00 0.00 91 1010.7
20260903114549 20 9 0.0 1.6 0.00 0.00 0.00 92 1010.7
20260903114043 20 105 0.0 0.0 0.00 0.00 0.00 92 1010.7
20260903113545 20 103 0.0 0.0 0.00 0.00 0.00 92 1010.7
20260903113042 20 103 0.0 0.0 0.00 0.00 0.00 92 1010.6
20260903112541 20 97 0.0 1.6 0.00 0.00 0.00 92 1010.7
20260903112037 20 207 0.0 1.6 0.00 0.00 0.00 92 1010.7
20260903111806 20 15 0.0 1.6 0.00 0.00 0.00 92 1010.6
20260903111033 20 24 0.0 1.6 0.00 0.00 0.00 92 1010.6
20260903110533 20 25 0.0 1.6 0.00 0.00 0.00 92 1010.7
20260903110031 20 17 0.0 0.0 0.00 0.00 0.00 92 1010.8
20260903105530 20 17 0.0 0.0 0.00 0.00 0.00 92 1010.8
20260903105301 20 17 0.0 0.0 0.00 0.00 0.00 92 1010.8
20260903104524 20 17 0.0 0.0 0.00 0.00 0.00 92 1010.8
20260903104021 20 17 0.0 0.0 0.00 0.00 0.00 92 1010.7
20260903103753 20 18 0.0 1.6 0.00 0.00 0.00 92 1010.6
20260903103021 20 17 0.0 1.6 0.00 0.00 0.00 92 1010.6
20260903102519 20 18 0.0 0.0 0.00 0.00 0.00 92 1010.6
20260903102024 20 18 0.0 0.0 0.00 0.00 0.00 92 1010.4
20260903102019 20 18 0.0 0.0 0.00 0.00 0.00 92 1010.5
20260903101024 20 17 0.0 0.0 0.00 0.00 0.00 91 1010.5
20260903101019 20 17 0.0 0.0 0.00 0.00 0.00 92 1010.5
20260903100016 20 17 0.0 0.0 0.00 0.00 0.00 91 1010.5
20260903095518 20 17 0.0 0.0 0.00 0.00 0.00 91 1010.4
20260903095012 20 17 0.0 0.0 0.00 0.00 0.00 91 1010.3
20260903094506 20 37 0.0 0.0 0.00 0.00 0.00 91 1010.4
20260903094233 20 12 0.0 0.0 0.00 0.00 0.00 91 1010.5
20260903093455 20 12 0.0 0.0 0.00 0.00 0.00 91 1010.4
20260903092948 20 13 0.0 0.0 0.00 0.00 0.00 91 1010.4
20260903092713 20 13 0.0 0.0 0.00 0.00 0.00 91 1010.5
20260903091937 20 6 0.0 3.2 0.00 0.00 0.00 91 1010.3
20260903091430 20 7 0.0 3.2 0.00 0.00 0.00 91 1010.4
20260903090925 20 24 0.0 0.0 0.00 0.00 0.00 90 1010.5
20260903090418 20 26 0.0 1.6 0.00 0.00 0.00 90 1010.6
20260903085913 20 12 0.0 1.6 0.00 0.00 0.00 90 1010.3
20260903085406 20 345 0.0 0.0 0.00 0.00 0.00 90 1010.3
20260903084901 20 346 0.0 0.0 0.00 0.00 0.00 91 1010.4
20260903084355 20 345 0.0 1.6 0.00 0.00 0.00 91 1010.3
20260903084119 20 75 0.0 1.6 0.00 0.00 0.00 92 1010.4
20260903083342 20 78 0.0 0.0 0.00 0.00 0.00 92 1010.6
20260903082837 20 77 0.0 0.0 0.00 0.00 0.00 92 1010.6
20260903082331 20 77 0.0 0.0 0.00 0.00 0.00 91 1010.8
20260903081825 20 78 0.0 0.0 0.00 0.00 0.00 91 1010.9
20260903081319 20 78 0.0 0.0 0.00 0.00 0.00 90 1010.8
20260903080818 20 77 0.0 0.0 0.00 0.00 0.00 90 1010.8
20260903080813 20 77 0.0 0.0 0.00 0.00 0.00 90 1010.8
20260903075801 20 77 0.0 0.0 0.00 0.00 0.00 90 1010.8
20260903075254 20 78 0.0 0.0 0.00 0.00 0.00 90 1010.7
20260903074749 21 78 0.0 0.0 0.00 0.00 0.00 90 1010.8
20260903074242 21 78 0.0 0.0 0.00 0.00 0.00 89 1010.8
20260903073736 21 78 0.0 0.0 0.00 0.00 0.00 88 1010.9
20260903073230 21 78 0.0 0.0 0.00 0.00 0.00 88 1010.9
20260903072725 21 77 0.0 0.0 0.00 0.00 0.00 88 1010.9
20260903072219 21 78 0.0 0.0 0.00 0.00 0.00 87 1010.9
20260903071712 21 78 0.0 0.0 0.00 0.00 0.00 87 1011.0
20260903071206 21 77 0.0 0.0 0.00 0.00 0.00 87 1011.0
20260903070700 21 77 0.0 1.6 0.00 0.00 0.00 87 1011.0
20260903070154 21 77 0.0 1.6 0.00 0.00 0.00 87 1011.0
20260903065648 21 77 0.0 0.0 0.00 0.00 0.00 87 1011.0
20260903065142 21 78 0.0 1.6 0.00 0.00 0.00 88 1011.0
20260903064637 21 77 0.0 1.6 0.00 0.00 0.00 88 1011.0
20260903064131 21 71 0.0 0.0 0.00 0.00 0.00 88 1010.9
20260903063857 21 282 0.0 0.0 0.00 0.00 0.00 88 1010.9
20260903063119 21 283 0.0 0.0 0.00 0.00 0.00 88 1011.1
20260903062612 21 283 0.0 0.0 0.00 0.00 0.00 89 1011.1
20260903062106 21 283 0.0 0.0 0.00 0.00 0.00 88 1011.3
20260903061601 21 283 0.0 0.0 0.00 0.00 0.00 88 1011.3
20260903061055 21 282 0.0 0.0 0.00 0.00 0.00 88 1011.4
20260903060552 21 282 0.0 0.0 0.00 0.00 0.00 87 1011.4
20260903060049 21 283 0.0 0.0 0.00 0.00 0.00 87 1011.3
20260903055549 21 283 0.0 0.0 0.00 0.00 0.00 87 1011.3
20260903055049 21 282 0.0 0.0 0.00 0.00 0.00 87 1011.3
20260903054550 21 282 0.0 1.6 0.00 0.00 0.00 88 1011.2
20260903054050 21 282 0.0 1.6 0.00 0.00 0.00 88 1011.3
20260903053550 21 4 0.0 0.0 0.00 0.00 0.00 89 1011.2
20260903053049 21 4 0.0 0.0 0.00 0.00 0.00 89 1011.3
20260903052547 21 3 0.0 0.0 0.00 0.00 0.00 89 1011.3
20260903052316 20 11 0.0 0.0 0.00 0.00 0.00 89 1011.4
20260903051544 20 11 0.0 0.0 0.00 0.00 0.00 88 1011.3
20260903051043 20 11 0.0 0.0 0.00 0.00 0.00 87 1011.4
20260903050540 20 11 0.0 0.0 0.00 0.00 0.00 87 1011.4
20260903050038 21 11 0.0 0.0 0.00 0.00 0.00 86 1011.4
20260903045535 21 11 0.0 0.0 0.00 0.00 0.00 86 1011.5
20260903045035 21 11 0.0 0.0 0.00 0.00 0.00 85 1011.6
20260903044532 21 11 0.0 0.0 0.00 0.00 0.00 84 1011.5
20260903044031 21 11 0.0 0.0 0.00 0.00 0.00 83 1011.6
20260903043529 22 11 0.0 0.0 0.00 0.00 0.00 82 1011.6
20260903043025 22 11 0.0 0.0 0.00 0.00 0.00 82 1011.5
20260903042527 22 11 0.0 0.0 0.00 0.00 0.00 83 1011.4
20260903042253 22 11 0.0 0.0 0.00 0.00 0.00 82 1011.6
20260903041745 22 11 0.0 0.0 0.00 0.00 0.00 82 1011.6
20260903041241 22 11 0.0 0.0 0.00 0.00 0.00 81 1011.5
20260903040502 22 11 0.0 0.0 0.00 0.00 0.00 81 1011.5
20260903035957 22 11 0.0 0.0 0.00 0.00 0.00 81 1011.6
20260903035456 23 11 0.0 0.0 0.00 0.00 0.00 80 1011.5
20260903034953 23 11 0.0 0.0 0.00 0.00 0.00 79 1011.6
20260903034453 23 12 0.0 0.0 0.00 0.00 0.00 79 1011.6
20260903033949 23 11 0.0 0.0 0.00 0.00 0.00 79 1011.6
20260903033449 23 11 0.0 0.0 0.00 0.00 0.00 79 1011.6
20260903033217 23 11 0.0 0.0 0.00 0.00 0.00 79 1011.7
20260903032445 23 12 0.0 0.0 0.00 0.00 0.00 80 1011.7
20260903031942 23 5 0.0 0.0 0.00 0.00 0.00 78 1011.7
20260903031440 23 5 0.0 0.0 0.00 0.00 0.00 79 1011.7
20260903030940 23 4 0.0 0.0 0.00 0.00 0.00 78 1011.6
20260903030713 23 5 0.0 0.0 0.00 0.00 0.00 79 1011.7
20260903025941 23 5 0.0 0.0 0.00 0.00 0.00 78 1011.7
20260903025441 23 5 0.0 0.0 0.00 0.00 0.00 78 1011.7
20260903024939 23 5 0.0 0.0 0.00 0.00 0.00 79 1011.7
20260903024439 23 5 0.0 0.0 0.00 0.00 0.00 79 1011.7
20260903023940 23 5 0.0 0.0 0.00 0.00 0.00 79 1011.8
20260903023831 23 4 0.0 0.0 0.00 0.00 0.00 79 1011.8
20260903023721 23 5 0.0 0.0 0.00 0.00 0.00 79 1011.8
20260903022709 23 5 0.0 0.0 0.00 0.00 0.00 78 1011.7
20260903021938 23 5 0.0 0.0 0.00 0.00 0.00 78 1011.7
20260903021437 23 5 0.0 0.0 0.00 0.00 0.00 77 1011.6
20260903020935 23 6 0.0 0.0 0.00 0.00 0.00 77 1011.6
20260903020707 23 5 0.0 0.0 0.00 0.00 0.00 76 1011.5
20260903015934 24 5 0.0 0.0 0.00 0.00 0.00 76 1011.5
20260903015431 24 5 0.0 0.0 0.00 0.00 0.00 75 1011.4
20260903014931 24 5 0.0 0.0 0.00 0.00 0.00 75 1011.4
20260903014430 24 5 0.0 0.0 0.00 0.00 0.00 74 1011.3
20260903014201 24 5 0.0 0.0 0.00 0.00 0.00 73 1011.3
20260903013706 25 5 0.0 0.0 0.00 0.00 0.00 72 1011.2
20260903012930 25 5 0.0 0.0 0.00 0.00 0.00 72 1011.1
20260903012429 25 5 0.0 0.0 0.00 0.00 0.00 71 1011.1
20260903011928 25 5 0.0 0.0 0.00 0.00 0.00 70 1011.1
20260903011427 25 5 0.0 0.0 0.00 0.00 0.00 69 1011.1
20260903010927 26 6 0.0 0.0 0.00 0.00 0.00 68 1011.0
20260903010426 26 5 0.0 0.0 0.00 0.00 0.00 67 1011.0
20260903005926 26 5 0.0 0.0 0.00 0.00 0.00 67 1010.9
20260903005423 26 5 0.0 0.0 0.00 0.00 0.00 65 1011.0
20260903005156 27 5 0.0 0.0 0.00 0.00 0.00 64 1010.9
20260903004425 27 5 0.0 0.0 0.00 0.00 0.00 64 1011.0
20260903003924 27 5 0.0 1.6 0.00 0.00 0.00 63 1011.0
20260903003425 27 5 0.0 1.6 0.00 0.00 0.00 63 1011.1
20260903002924 27 5 0.0 3.2 0.00 0.00 0.00 62 1011.0
20260903002656 27 5 0.0 3.2 0.00 0.00 0.00 62 1011.0
20260903001924 27 343 0.0 1.6 0.00 0.00 0.00 61 1011.0
20260903001422 28 345 0.0 1.6 0.00 0.00 0.00 61 1011.0
20260903000922 28 46 0.0 1.6 0.00 0.00 0.00 60 1011.0
20260903000421 28 49 0.0 1.6 0.00 0.00 0.00 60 1010.9
20260903000152 28 49 0.0 1.6 0.00 0.00 0.00 59 1010.9
20260902235654 28 59 0.0 3.2 0.00 0.00 0.00 59 1011.0
20260902235149 28 328 0.0 3.2 0.00 0.00 0.00 58 1010.9
20260902234649 29 20 0.0 3.2 0.00 0.00 0.00 57 1010.9
20260902233917 29 349 0.0 1.6 0.00 0.00 0.00 56 1011.0
20260902233418 29 131 0.0 1.6 0.00 0.00 0.00 55 1011.0
20260902232919 30 356 0.0 1.6 0.00 0.00 0.00 54 1011.0
20260902232417 30 348 0.0 4.8 0.00 0.00 0.00 53 1011.0
20260902231917 30 356 0.0 4.8 0.00 0.00 0.00 51 1011.0
20260902231648 31 70 0.0 4.8 0.00 0.00 0.00 51 1011.0
20260902230919 31 338 0.0 4.8 0.00 0.00 0.00 50 1011.1
20260902230415 31 113 0.0 4.8 0.00 0.00 0.00 51 1011.1
20260902225915 31 89 0.0 4.8 0.00 0.00 0.00 51 1011.1
20260902225414 31 12 0.0 4.8 0.00 0.00 0.00 50 1011.1
20260902224915 31 350 0.0 4.8 0.00 0.00 0.00 52 1011.1
20260902224415 31 350 0.0 4.8 0.00 0.00 0.00 49 1011.1
20260902223914 31 23 0.0 4.8 0.00 0.00 0.00 49 1011.1
20260902223415 31 100 0.0 4.8 0.00 0.00 0.00 50 1011.1
20260902223149 31 103 0.0 4.8 0.00 0.00 0.00 49 1011.1
20260902222415 31 141 0.0 4.8 0.00 0.00 0.00 50 1011.1
20260902221910 31 76 0.0 3.2 0.00 0.00 0.00 51 1011.2
20260902221409 31 76 0.0 4.8 0.00 0.00 0.00 50 1011.2
20260902221144 31 315 0.0 6.4 0.00 0.00 0.00 49 1011.2
20260902220411 31 77 0.0 6.4 0.00 0.00 0.00 50 1011.2
20260902215910 31 322 0.0 4.8 0.00 0.00 0.00 50 1011.2
20260902215409 31 82 0.0 4.8 0.00 0.00 0.00 52 1011.3
20260902214910 31 83 0.0 4.8 0.00 0.00 0.00 52 1011.3
20260902214409 31 119 0.0 4.8 0.00 0.00 0.00 53 1011.3
20260902213910 31 346 0.0 4.8 0.00 0.00 0.00 51 1011.3
20260902213409 31 354 0.0 4.8 0.00 0.00 0.00 50 1011.3
20260902213142 31 22 0.0 6.4 0.00 0.00 0.00 54 1011.3
20260902212642 31 91 0.0 6.4 0.00 0.00 0.00 55 1011.3
20260902212531 31 349 0.0 3.2 0.00 0.00 0.00 52 1011.3
20260902211410 31 349 0.0 3.2 0.00 0.00 0.00 53 1011.3
20260902210911 30 356 1.6 3.2 0.00 0.00 0.00 55 1011.4
20260902210409 30 356 1.6 4.8 0.00 0.00 0.00 54 1011.3
20260902210141 30 345 0.0 4.8 0.00 0.00 0.00 54 1011.3
20260902205409 31 333 0.0 4.8 0.00 0.00 0.00 54 1011.3
20260902205143 30 350 1.6 9.7 0.00 0.00 0.00 54 1011.4
20260902204411 30 76 1.6 9.7 0.00 0.00 0.00 54 1011.5
20260902203909 30 347 0.0 4.8 0.00 0.00 0.00 55 1011.5
20260902203409 31 328 0.0 4.8 0.00 0.00 0.00 56 1011.6
20260902202909 31 257 1.6 9.7 0.00 0.00 0.00 55 1011.6
20260902202411 31 152 1.6 9.7 0.00 0.00 0.00 53 1011.6
20260902201909 31 118 0.0 3.2 0.00 0.00 0.00 54 1011.5
20260902201411 31 93 0.0 3.2 0.00 0.00 0.00 52 1011.5
20260902200914 31 49 0.0 3.2 0.00 0.00 0.00 55 1011.6
20260902200411 30 126 0.0 6.4 0.00 0.00 0.00 55 1011.7
20260902195910 30 108 0.0 6.4 0.00 0.00 0.00 51 1011.7
20260902195640 30 257 0.0 3.2 0.00 0.00 0.00 51 1011.8
20260902194907 30 204 0.0 6.4 0.00 0.00 0.00 54 1011.9
20260902194638 30 333 1.6 6.4 0.00 0.00 0.00 54 1011.8
20260902194526 30 87 1.6 4.8 0.00 0.00 0.00 53 1011.9